Regional Weather Roundup
Issued by NWS Little Rock, AR

Home | Current Version | Previous Version | Text Only | Print | Product List | Glossary Off
Versions: 1 2 3 4 5 6 7 8 9 10 11 12 13 14 15 16 17 18 19 20 21 22 23 24 25 26 27

000
ASUS44 KLZK 242105
RWRLZK

WEATHER ROUNDUP FOR ARKANSAS
NATIONAL WEATHER SERVICE LITTLE ROCK AR
400 PM CDT TUE MAY 24 2016

NOTE: "FAIR" INDICATES FEW OR NO CLOUDS BELOW 12,000 FEET WITH NO
SIGNIFICANT WEATHER AND/OR OBSTRUCTIONS TO VISIBILITY.

ARZ001-003-010-029-242200-
NORTHWEST ARKANSAS

CITY           SKY/WX    TMP DP  RH WIND       PRES   REMARKS
FAYETTEVILLE   CLOUDY    73  68  84 CALM      30.00R
FORT SMITH     CLOUDY    83  69  62 S12       29.95S HX  86
HARRISON       TSTM      64  63  96 SE7       30.07F FOG
BENTONVILLE    CLOUDY    79  64  61 S7        30.00R
ROGERS         CLOUDY    76  68  76 S14       29.99F
SILOAM SPGS    CLOUDY    82  63  51 W8        29.99R
HIGHFILL       CLOUDY    80  69  69 S9        29.98S
SPRINGDALE     PTSUNNY   75  70  83 SE8       30.02R
$$

ARZ004-005-016-242200-
NORTH CENTRAL ARKANSAS

CITY           SKY/WX    TMP DP  RH WIND       PRES   REMARKS
BATESVILLE     CLOUDY    82  70  65 S7        30.00S HX  86
FLIPPIN        CLOUDY   N/A N/A N/A NE9G20    30.01F THUNDER
MTN HOME       TSTM      63  62  97 NE10G18   30.04F FOG
$$

ARZ040-041-242200-
WEST CENTRAL ARKANSAS

CITY           SKY/WX    TMP DP  RH WIND       PRES   REMARKS
MENA           PTSUNNY   82  73  74 S7G17     29.99F HX  88
MOUNT IDA      LGT RAIN  80  70  71 VRB3      29.98S
$$

ARZ009-017-025-026-028-242200-
NORTHEAST ARKANSAS

CITY           SKY/WX    TMP DP  RH WIND       PRES   REMARKS
CORNING        TSTM      66  66 100 E18       30.02F
JONESBORO      TSTM      80  65  59 NW26G37   29.99R
NEWPORT        CLOUDY    85  67  54 S16       29.99F HX  87
WALNUT RIDGE   CLOUDY    66  63  88 E14G20    30.04R
BLYTHEVILLE    CLOUDY    84  62  47 S9        30.01F HX  85
NW BLYTHEVILLE CLOUDY    84  63  48 SE6       30.01F HX  85
$$

ARZ022-023-033-042-044-242200-
CENTRAL ARKANSAS

CITY           SKY/WX    TMP DP  RH WIND       PRES   REMARKS
LITTLE ROCK    PTSUNNY   87  66  49 S14       29.98F HX  89
N LITTLE ROCK    N/A     85  67  54 S9G20     29.97S HX  87
JACKSONVILLE   MOSUNNY   86  68  54 S8        29.99R HX  89
SEARCY         PTSUNNY   86  70  58 S13       30.00S HX  90
HOT SPRINGS    PTSUNNY   84  67  56 S8        29.99S HX  86
RUSSELLVILLE   PTSUNNY   84  65  52 S7        29.96S HX  86
CLINTON        PTSUNNY   82  68  61 S3        30.00R HX  85
$$

ARZ036-242200-
EAST ARKANSAS

CITY           SKY/WX    TMP DP  RH WIND       PRES   REMARKS
WEST MEMPHIS   MOSUNNY   87  64  46 S17       29.98F HX  88
$$

ARZ050-053-066-070-073-242200-
SOUTHWEST ARKANSAS

CITY           SKY/WX    TMP DP  RH WIND       PRES   REMARKS
ARKADELPHIA    MOCLDY    88  74  63 VRB6      29.98F HX  96
CAMDEN         MOSUNNY   90  64  43 S9G17     29.98F HX  91
TEXARKANA      MOSUNNY   84  70  62 S10G20    29.98F HX  88
EL DORADO      PTSUNNY   87  67  51 S12       30.00F HX  90
DE QUEEN       PTSUNNY   82  72  71 S13       29.95F HX  87
$$

ARZ056-057-069-242200-
SOUTHEAST ARKANSAS

CITY           SKY/WX    TMP DP  RH WIND       PRES   REMARKS
PINE BLUFF     MOSUNNY   87  66  49 S10G21    29.99F HX  89
STUTTGART      PTSUNNY   90  64  43 S16       30.00S HX  91
MONTICELLO     SUNNY     90  62  39 S13       30.00F HX  90

$$






USA.gov is the U.S. government's official web portal to all federal, state and local government web resources and services.